Regional Weather Roundup
Issued by NWS Upton, NY

Current Version | Previous Version | Text Only | Print | Product List | Glossary Off
Versions: 1 2 3 4 5 6 7 8 9 10 11 12 13 14 15 16 17 18 19 20 21 22 23 24 25 26 27
000 ASUS41 KOKX 280408 RWROKX REGIONAL WEATHER ROUNDUP NATIONAL WEATHER SERVICE NEW YORK NY 1200 AM EDT TUE MAR 28 2017 NOTE: "FAIR" INDICATES FEW OR NO CLOUDS BELOW 12,000 FEET WITH NO SIGNIFICANT WEATHER AND/OR OBSTRUCTIONS TO VISIBILITY. NYZ071-072-176-178-NJZ106-104-280500- NEW YORK CITY METRO AREA CITY SKY/WX TMP DP RH WIND PRES REMARKS Central Park CLOUDY 47 44 90 E6 30.03R Wall St Helipt CLOUDY 48 45 87 NE7 30.02R LaGuardia APRT CLOUDY 44 41 89 E3 30.01S Kennedy INTL CLOUDY 48 47 96 E6 30.02S Breezy Point N/A 45 N/A N/A E2 N/A Newark/Liberty CLOUDY 49 46 90 NE5 30.01R Teterboro CLOUDY 48 45 89 CALM 30.00S $$ NYZ177-179-078>081-280500- LONG ISLAND NEW YORK CITY SKY/WX TMP DP RH WIND PRES REMARKS Jones Beach N/A 43 N/A N/A NE5 N/A Matinecock PT NOT AVBL Farmingdale CLOUDY 45 44 97 E6 30.01F FOG MacArthur/ISP FOG 42 42 100 SE3 30.02R VSB 1/4 Shirley FOG 42 42 100 CALM 30.03R VSB 1/4 Westhampton FOG 42 42 100 CALM 30.04S VSB 1/4 East Hampton CLOUDY 40 38 95 CALM 30.03R Montauk N/A 42 42 100 NW5 30.03S $$ NYZ052-065-067-280500- HUDSON VALLEY CITY SKY/WX TMP DP RH WIND PRES REMARKS White Plains FOG 42 41 96 CALM 29.99S VSB 3/4 Newburgh CLOUDY 41 41 100 CALM 30.01S Montgomery CLOUDY 39 37 92 CALM 29.98F FOG Poughkeepsie CLOUDY 36 35 96 CALM 30.00F Albany CLOUDY 44 39 82 S5 29.98F $$ NJZ001-105-106-008-010-013-015-019>022-104-280500- NEW JERSEY CITY SKY/WX TMP DP RH WIND PRES REMARKS Newark/Liberty CLOUDY 49 46 90 NE5 30.01R Teterboro CLOUDY 48 45 89 CALM 30.00S Caldwell CLOUDY 47 44 90 VRB5 30.00F Somerville CLOUDY 47 46 97 CALM 29.97F Linden CLOUDY 49 46 88 CALM 30.00S FOG Sussex CLOUDY 40 40 100 CALM 29.99S FOG Andover N/A 42 41 96 CALM 29.98F Trenton CLOUDY 49 48 97 E5 29.97F FOG Millville MOCLDY 56 53 90 CALM 29.94F Atlantic City CLOUDY 48 46 93 E3 29.96F Wrightstown CLOUDY 49 48 97 E6 29.95F FOG Toms River FOG 46 45 96 CALM 29.99F VSB 1/4 Belmar FOG 47 47 100 E3 30.00S VSB 1/4 $$ PAZ047>061-062-071-280500- EASTERN PENNSYLVANIA CITY SKY/WX TMP DP RH WIND PRES REMARKS Philadelphia CLOUDY 53 50 89 NE7 29.97S FOG Allentown CLOUDY 49 45 86 NE6 29.97F FOG Scranton CLOUDY 51 47 86 E6 29.95S $$ CTZ002-004>006-009-010-012-RIZ004-006-007-MAZ004-011-015-280500- SOUTHERN NEW ENGLAND IN CT CITY SKY/WX TMP DP RH WIND PRES REMARKS Bradley INTL CLOUDY 39 38 96 SW3 30.03S Hartford CLOUDY 39 37 92 CALM 30.03F Danbury FOG 44 44 100 CALM 30.02S VSB 1 Wtrbury/Oxford CLOUDY 39 36 87 N5 30.03R VSB 1/4 Bridgeport CLOUDY 44 41 89 E5 30.02S FOG Meriden CLOUDY 41 39 93 N3 30.04R FOG New Haven CLOUDY 41 39 93 NE5 30.02S FOG Chester NOT AVBL Groton CLOUDY 43 41 93 N7 30.02R FOG Wilimantic CLOUDY 42 41 96 W3 30.04R IN RI CITY SKY/WX TMP DP RH WIND PRES REMARKS Providence CLOUDY 41 38 89 N8 30.03R Block Island FOG 42 41 96 NE5 30.02S VSB 1/4 Westerly CLOUDY 44 43 96 N6 30.03R IN MA CITY SKY/WX TMP DP RH WIND PRES REMARKS Boston CLOUDY 37 37 100 N5 30.04S WCI 33 Worcester FOG 35 34 96 VRB3 30.00S VSB 1/4 Westfield CLOUDY 38 38 100 CALM 30.03R Provincetown CLOUDY 38 37 97 N10 30.03R WCI 31 Nantucket FOG 39 38 96 N13 30.01R VSB 1 WCI 31 $$ ANZ330-335-338-340-345-350-353-355-280500- COASTAL MARINE OBSERVATIONS STATION/POSITION TIME SKY/WX TEMP WIND PRES VSBY WAVE AIR SEA DIR/SP/G HT/PER (UTC) (F) (DEG/KT/KT) (MB) (MI) (FT/S) NY HARB ENTRANCE 0250 44 43 50/ 2/ 2 1016.2 3/ 7 20 S FIRE ISLAND 0350 43 41 30/ 6/ 6 1016.0 3/ 7 GREAT SOUTH BAY NOT AVBL 23 SSW MONTAUK P 0250 43 42 1016.8 3/ 6 15 E BARNEGAT LI 0330 44 N/A 4/ 6 HUDSON CANYON 0250 47 45 330/ 4/ 6 1016.2 4/ 7 KINGS POINT 0336 39 40 1016.1 EXECUTION ROCKS NOT AVBL CENTRAL LI SOUND 0315 40 20/ 4/ 6 N/A 0 EASTERN LI SOUND NOT AVBL ROBBINS REEF 0348 48 170/ 5/ 5 1016.3 $$ >>>>>>>>>>>>>>>>>>>>>>>>>>>> KEY <<<<<<<<<<<<<<<<<<<<<<<<<<< > < > SKY/WX - Sky Condition/Present Weather < > TMP - Temperature in Fahrenheit < > DP - Dew Point in Fahrenheit < > RH - Relative Humidity in Percent < > WIND - Direction (from) and Speed in MPH < > PRES - Mean Sea Level Pressure (inches of Hg) < > WCI - Wind Chill Index < > VSB - VISIBILITY IN MILES < > HX - HEAT INDEX < > TC - TEMPERATURE IN CELSIUS < > VRB - VARIABLE WIND DIRECTION < > < >>>>>>>>>>>>>>>>>>>>>>>>>>>> KEY <<<<<<<<<<<<<<<<<<<<<<<<<<<

USA.gov is the U.S. government's official web portal to all federal, state and local government web resources and services.